Regional Weather Roundup
Issued by NWS

Home | Current Version | Previous Version | Graphics & Text | Print | Product List | Glossary Off
Versions: 1 2 3 4 5 6 7 8 9 10 11 12 13 14 15 16 17 18 19 20 21 22 23 24 25 26 27 28 29 30 31 32 33 34 35 36 37 38 39 40 41 42 43 44 45 46 47 48 49 50

000
ASUS43 KTOP 011508
RWRKS

WEATHER ROUNDUP FOR KANSAS
NATIONAL WEATHER SERVICE GOODLAND KS
1000 AM CDT MON SEP 01 2014

NOTE:  "FAIR" INDICATES FEW OR NO CLOUDS BELOW 12,000 FEET WITH NO
SIGNIFICANT WEATHER AND/OR OBSTRUCTIONS TO VISIBILITY.

KSZ001>006-013>018-027>032-041>047-011600-
NORTHWEST KANSAS

CITY           SKY/WX    TMP DP  RH WIND       PRES   REMARKS
GOODLAND       PTSUNNY   63  52  67 NW7       30.03S
HAYS           PTSUNNY   64  55  72 N8        29.95S
HILL CITY      CLOUDY    65  56  72 N9        29.96S
RUSSELL        CLOUDY    66  59  78 N3        29.93R
$$

KSZ061>065-074>080-084>089-011600-
SOUTHWEST KANSAS

CITY           SKY/WX    TMP DP  RH WIND       PRES   REMARKS
DODGE CITY     CLOUDY    66  61  84 NE16      29.94R
ELKHART          N/A     67  50  54 N10         N/A
GARDEN CITY    MOSUNNY   68  54  60 NE15      29.95S
GREAT BEND     CLOUDY    70  63  78 N7        29.93S
LIBERAL        CLOUDY    70  57  64 N16G23    29.95S
PRATT          CLOUDY    72  59  64 SE13      29.90S
$$

KSZ066>073-081>083-090>101-011600-
SOUTHEAST KANSAS

CITY           SKY/WX    TMP DP  RH WIND       PRES   REMARKS
CHANUTE        PTSUNNY   69  64  84 SE17G25   29.91S
COFFEYVILLE    CLOUDY    70  64  81 SE14      29.92F
HUTCHINSON     CLOUDY    72  62  71 E9        29.91R
MEDICINE LODGE   N/A     75  64  68 SE17G28   29.85S
NEWTON         MOSUNNY   70  59  68 SE15G21   29.94R
PARSONS        PTSUNNY   71  63  75 SE12G18   29.93S
WICHITA INTL   PTSUNNY   74  61  63 SE18G28   29.88S
WICHITA JABRA  CLOUDY    71  62  73 SE16G24   29.89S
WICHITA MCCONL PTSUNNY   72  63  72 SE20G28   29.89S
WINFIELD       PTSUNNY   72  61  68 SE23G35   29.89F
$$

KSZ007>012-019>026-033>040-048>060-102>105-011600-
NORTHEAST KANSAS

CITY           SKY/WX    TMP DP  RH WIND       PRES   REMARKS
CONCORDIA      MOSUNNY   68  62  81 N12       29.90S
EMPORIA        PTSUNNY   70  66  87 S14       29.91R
LAWRENCE       MOSUNNY  N/A N/A N/A SW12      29.88R
MANHATTAN      MOSUNNY   71  66  84 SW13      29.89R
OLATHE IND     PTSUNNY   69  65  86 SW14      29.89R
OLATHE EXE     CLOUDY    67  64  90 SW13      29.88R
SALINA         MOSUNNY   73  66  78 W8        29.91R
TOPEKA BILLARD SUNNY     71  65  81 SW10      29.88R
TOPEKA FORBES  SUNNY     71  65  81 SW12      29.89R
$$



USA.gov is the U.S. government's official web portal to all federal, state and local government web resources and services.